www.pogodaiklimat.ru

Погода и климат >> Архив погоды >> Индонезия >> Аэропорт Ханга Надима


ПОГОДА в Аэропорту Ханга Надима

  • Прогноз погоды в Аэропорту Ханга Надима
  • Монитор погоды в Аэропорту Ханга Надима

АРХИВ ПОГОДЫ в Аэропорту Ханга Надима

Время (UTC), дата Ветер
(напр.,м/с)
 
Видим.   Явления Облачность Т
(С)
Тd
(С)
f
(%)
Тe
(С)
Тes
(С)
Комфортность P
(гПа)
Po
(гПа)
Тmin
(С)
Tmax
(С)
R
(мм)
R24
(мм)
S
(см)
00 12.08 ЮВ 4 10 км 8/1 420 м
[Sc Ac trans Cc]
+27.8 +24.4 82 +39 +40 очень
душно
1012.5 1008.0 +22.6
03 12.08 ЮВ 5 10 км 9/1 420 м
[Sc Cs]
+31.3 +23.6 64 +42 +48 опасность
перегрева
1013.7 1009.2
06 12.08 ЮВ 5 10 км 9/3 420 м
[Cu hum Cs]
+31.4 +23.7 64 +43 +49 опасность
перегрева
1012.0 1007.5
09 12.08 ЮВ 3 10 км 9/4 420 м
[Sc As trans Cs]
+31.0 +24.8 70 +44 +46 опасность
перегрева
1010.0 1005.5
12 12.08 ЮВ 2 10 км 9/1 420 м
[Cu hum Cs]
+28.5 +24.5 79 +40 +40 очень
душно
1010.7 1006.2 +32.4
15 12.08 ЮВ 2 10 км 5/3 420 м
[Cu hum Cs]
+27.7 +24.3 82 +39 +39 очень
душно
1012.2 1007.7
18 12.08 ЮВ 2 10 км 8/3 420 м
[Sc Cs]
+27.4 +24.1 82 +38 +38 очень
душно
1011.5 1007.0
21 12.08 штиль 0 10 км 8/3 420 м
[Sc Ac trans Cs]
+27.4 +24.6 85 +39 +39 очень
душно
1011.1 1006.6
00 13.08 ЮВ 2 9000 м 8/1 420 м
[Sc Ac trans Cs]
+28.0 +24.9 83 +40 +41 очень
душно
1012.4 1007.9 +26.9
03 13.08 ЮВ 3 10 км 9/4 420 м
[Sc Ac trans Cs]
+31.5 +24.4 66 +44 +48 опасность
перегрева
1013.4 1008.9
06 13.08 ЮВ 3 10 км 10/3 420 м
[Sc Cs]
+32.9 +23.2 57 +43 +53 опасность
перегрева
1012.3 1007.8
09 13.08 ЮВ 4 10 км 9/3 420 м
[Cu hum Cs]
+31.4 +23.7 64 +43 +45 опасность
перегрева
1010.4 1005.9
12 13.08 ЮВ 3 10 км 9/3 420 м
[Cu hum Ci fib]
+29.0 +23.8 74 +40 +40 очень
душно
1011.9 1007.4 +33.4
15 13.08 ЮВ 2 10 км 10/1 420 м
[Sc Cs]
+27.9 +24.8 83 +40 +40 очень
душно
1013.3 1008.8
18 13.08 ЮВ 1 10 км 10/1 420 м
[Sc Cs]
+27.1 +25.0 88 +39 +39 очень
душно
1012.9 1008.4
21 13.08 ЮВ 2 10 км 10/1 420 м
[Sc Cs]
+26.7 +24.9 90 +38 +38 очень
душно
1011.9 1007.4
00 14.08 штиль 0 9000 м 10/6 420 м
[Sc Cs]
+27.2 +25.2 89 +39 +40 очень
душно
1013.5 1009.0 +26.2
03 14.08 ЮВ 4 10 км 10/4 420 м
[Cu hum Cs]
+31.2 +24.4 67 +43 +48 опасность
перегрева
1014.6 1010.1
06 14.08 ЮВ 4 10 км 10/3 420 м
[Cu hum Ac trans Cs]
+32.3 +23.9 61 +44 +48 опасность
перегрева
1012.4 1007.9
09 14.08 ЮВ 5 10 км 9/3 420 м
[Cu hum Ac trans Cs]
+30.3 +24.5 71 +43 +44 опасность
перегрева
1010.7 1006.2
12 14.08 ЮВ 3 10 км 8/1 420 м
[Cu hum Ac trans Ci fib]
+28.9 +24.6 78 +41 +41 опасность
перегрева
1012.0 1007.5 +33.0
15 14.08 ЮВ 2 10 км 8/1 420 м
[Cu hum Cs]
+28.1 +24.5 81 +40 +40 очень
душно
1014.3 1009.8
18 14.08 штиль 0 10 км 8/1 420 м
[Cu hum Cs]
+27.5 +24.4 83 +39 +39 очень
душно
1013.7 1009.2
21 14.08 штиль 0 10 км 8/1 420 м
[Cu hum Cs]
+27.1 +24.5 86 +38 +38 очень
душно
1013.3 1008.8
00 15.08 штиль 0 10 км 8/1 420 м
[Sc Ac trans Cs]
+26.5 +24.9 91 +38 +39 очень
душно
1014.5 1010.0 +25.4
03 15.08 Ю 2 10 км 8/3 420 м
[Sc Ac trans Cs]
+30.8 +23.3 64 +41 +49 опасность
перегрева
1015.0 1010.5
06 15.08 ЮВ 3 10 км слаб. дождь 8/4 420 м
[Sc Cs]
+29.6 +24.5 74 +42 +50 опасность
перегрева
1013.6 1009.1 0.0
09 15.08 Ю 3 10 км в посл. час дождь 9/4 420 м
[Cu hum As trans Ci fib]
+30.0 +25.8 78 +45 +46 опасность
перегрева
1011.4 1006.9
12 15.08 ЮВ 3 10 км в посл. час дождь 9/3 420 м
[Sc Ac trans Ci fib]
+28.4 +24.1 78 +40 +40 очень
душно
1012.2 1007.7 +32.4
15 15.08 ЮВ 2 10 км 9/3 420 м
[Sc Ac trans Ci fib]
+27.8 +24.4 82 +39 +39 очень
душно
1014.1 1009.6
18 15.08 ЮВ 2 10 км 9/3 420 м
[Sc Ac trans Ci fib]
+27.6 +23.6 79 +38 +38 очень
душно
1012.9 1008.4
21 15.08 ЮВ 2 10 км 9/3 420 м
[Sc Ac trans Ci fib]
+27.8 +23.2 76 +37 +37 очень
душно
1011.7 1007.2
00 16.08 Ю 2 10 км 9/1 420 м
[Sc Ac trans Ci fib]
+27.3 +23.8 81 +37 +38 очень
душно
1013.5 1009.0 +26.4 0.0
03 16.08 Ю 3 7000 м дым 8/3 420 м
[Sc Ac trans Ci fib]
+30.7 +22.7 62 +40 +47 очень
душно
1014.4 1009.9
06 16.08 ЮВ 5 10 км дым 8/3 420 м
[Sc Ac trans Ci sp]
+33.2 +22.5 54 +43 +48 опасность
перегрева
1012.8 1008.3
09 16.08 ЮВ 4 10 км 8/3 420 м
[Cu hum Ac trans Ci sp]
+30.5 +23.5 66 +41 +43 опасность
перегрева
1011.2 1006.7
12 16.08 ЮВ 2 10 км 8/1 420 м
[Cu hum Ac trans Ci sp]
+28.8 +23.5 73 +39 +39 очень
душно
1011.9 1007.4 +33.6
15 16.08 ЮВ 2 10 км 8/1 420 м
[Cu hum Ac trans Ci sp]
+28.2 +23.9 78 +39 +39 очень
душно
1013.9 1009.4
18 16.08 ЮВ 3 10 км 8/1 420 м
[Cu hum Ac trans Ci sp]
+27.8 +24.1 80 +39 +39 очень
душно
1013.3 1008.8
21 16.08 ЮВ 3 10 км 8/1 420 м
[Cu hum Ac trans Ci sp]
+28.1 +24.7 82 +40 +40 очень
душно
1012.5 1008.0
00 17.08 ЮВ 2 7000 м 9/1 420 м
[Sc Ac und Cs]
+28.1 +24.8 82 +40 +41 очень
душно
1013.3 1008.8 +26.7
03 17.08 Ю 6 10 км 9/4 420 м
[Sc Cs]
+30.8 +23.6 66 +42 +45 опасность
перегрева
1014.7 1010.2
06 17.08 Ю 6 10 км 9/1 420 м
[Sc Cs]
+32.0 +23.7 62 +43 +49 опасность
перегрева
1012.6 1008.1
09 17.08 ЮВ 4 10 км 10/3 420 м
[Sc Cs]
+31.4 +22.7 60 +41 +43 опасность
перегрева
1011.2 1006.7
12 17.08 ЮВ 3 10 км 10/1 420 м
[Cu hum Cs]
+28.6 +23.1 72 +38 +38 очень
душно
1012.0 1007.5 +32.8
15 17.08 В 2 10 км 6/1 420 м
[Sc Cs]
+27.6 +23.7 79 +38 +38 очень
душно
1013.7 1009.2
18 17.08 штиль 0 10 км 6/3 420 м
[Sc Cs]
+27.6 +23.9 80 +38 +38 очень
душно
1013.0 1008.5
21 17.08 штиль 0 10 км 6/1 420 м
[Sc Ac trans Ci fib]
+27.7 +23.7 79 +38 +38 очень
душно
1012.2 1007.7
00 18.08 ЮВ 2 8000 м 9/3 420 м
[Cu hum Ac trans Cs]
+28.1 +24.4 80 +39 +40 очень
душно
1013.7 1009.2 +27.4
03 18.08 ЮВ 3 9000 м 10/1 420 м
[Cu hum Cs]
+31.2 +24.1 66 +43 +52 опасность
перегрева
1014.4 1009.9
06 18.08 ЮВ 4 10 км 10/1 420 м
[Cu hum Cs]
+31.7 +21.6 55 +40 +51 опасность
солнечного
удара
1012.9 1008.4
09 18.08 ЮВ 4 10 км 9/1 420 м
[Cu hum Cs]
+31.2 +22.5 60 +41 +43 опасность
перегрева
1011.7 1007.2
12 18.08 ЮВ 2 10 км 9/1 420 м
[Cu hum Cs]
+28.0 +22.9 74 +37 +37 очень
душно
1012.2 1007.7 +32.6
15 18.08 ЮВ 3 10 км 9/1 420 м
[Cu hum Cs]
+27.5 +23.3 78 +37 +37 очень
душно
1014.1 1009.6

 

Местоположение метеостанции Аэропорт Ханга Надима (Индонезия): широта 1.12 долгота 104.11 высота над уровнем моря 24 м.

В архиве по умолчанию представлена погода в Аэропорту Ханга Надима за последнюю неделю. Архивные данные за месяц целиком и за предыдущие месяцы, начиная с января 2011 года, Вы можете получить, выбрав интересующий диапазон дат из раскрывающегося списка и нажав кнопку "Ввод!".


*Определитесь, кто Вы:
робот инопланетянин человек

Внимание! Время в таблицах - всемирное. Для получения местного времени необходимо прибавить поправку, которая равна 7 ч.

Смотрите также архив погоды в соседних городах и на ближайших метеорологических станциях:

Погода в Сингапуре (Сингапур) (31 км)
Погода в Танджунгпинанге (Индонезия) (52 км)
Погода в Аэропорту Сеная (Малайзия) (75 км)
Погода в Аэропорту Дабо (Индонезия) (185 км)
Погода в Малакке (Малайзия) (243 км)
Погода в Аэропорту Япура (Индонезия) (257 км)
Погода в Пеканбару (Индонезия) (305 км)
Погода в Джамби (Индонезия) (310 км)
Погода в Куантане (Малайзия) (312 км)
Погода в Куала-Лумпур аэропорту (Малайзия) (322 км)

Пояснения к столбцам:

Ветер - указаны скорость ветра в м/с - средняя за 10 мин, порывы в срок и между сроками (в фигурных скобках) и направление, откуда дует ветер: С - северный, СВ - северо-восточный, В - восточный, ЮВ - юго-восточный, Ю - южный, ЮЗ - юго-западный, З - западный, СЗ - северо-западный.
Видимость - горизонтальная дальность видимости в метрах или километрах. При видимости от 1 до 10 км при отсутствии осадков обычно наблюдается дымка, при ухудшении видимости до 1 км и менее - туман. В сухую погоду видимость может ухудшаться дымом, пылью или мглою.
Явления - указаны атмосферные явления, наблюдавшиеся в срок или в последний час перед сроком; фигурными скобками обозначены явления, наблюдавшиеся между сроками (за 1-3 часа до срока); квадратными скобками обозначены град или гололедные отложения с указанием их диаметра в мм.
Облачность - указаны через наклонную черту общая и нижняя облачность в баллах и высота нижней границы облаков в метрах; квадратными скобками обозначены формы облаков: Ci - перистые, Cs - перисто-слоистые, Cc - перисто-кучевые, Ac - высококучевые, As - высокослоистые, Sc - слоисто-кучевые, Ns - слоисто-дождевые, Cu - кучевые, Cb - кучево-дождевые. Подробнее классификацию облаков см. в Атласе облаков (PDF).
T - Температура воздуха - температура, измеренная на высоте 2 м над землей.
Td - Температура точки росы - температура, при понижении до которой содержащийся в воздухе водяной пар достигнет насыщения.
f - Относительная влажность воздуха - влажноcть воздуха, измеренная на высоте 2 м над землей.
Te - Эффективная температура - температура, которую ощущает одетый по сезону человек в тени. Характеристика душности погоды. При расчете учитывается влияние влажности воздуха и скорости ветра на теплоощущения человека.
Tes - Эффективная температура на солнце - температура, которую ощущает человек, с поправкой на солнечный нагрев. Характеристика знойности погоды. Зависит от высоты солнца над горизонтом, облачности и скорости ветра. Ночью, в пасмурную погоду, а также при ветре 12 м/с и более поправка равна нулю.
P - Атмосферное давление - приведенное к уровню моря атмосферное давление.
Po - Атмосферное давление - измеренное на уровне метеостанции атмосферное давление.
Tmin - Минимальная температура - минимум температуры воздуха на высоте 2 м над землей.
Tmax - Максимальная температура - максимум температуры воздуха на высоте 2 м над землей.
R - Количество осадков - Количество выпавших осадков за период времени, мм. При наведении курсора мыши на число - период времени, за который выпало указанное количество осадков.
R24 - Количество осадков - Количество выпавших осадков за 24 часа, мм.
S - Снежный покров - Высота снежного покрова, см. При наведении курсора мыши на число - состояние снежного покрова и степень покрытия местности в баллах.